Regional Weather Roundup
Issued by NWS

Home | Current Version | Previous Version | Graphics & Text | Print | Product List | Glossary On
Versions: 1 2 3 4 5 6 7 8 9 10 11 12 13 14 15 16 17 18 19 20 21 22 23 24 25 26 27 28 29 30 31 32 33 34 35 36
000
ASUS45 KBOU 271707
RWRCO

WEATHER ROUNDUP FOR COLORADO
NATIONAL WEATHER SERVICE DENVER/BOULDER CO
1000 AM MST SAT DEC 27 2014

NOTE: "FAIR" INDICATES FEW OR NO CLOUDS BELOW 12000 FEET WITH NO
SIGNIFICANT WEATHER AND/OR OBSTRUCTIONS TO VISIBILITY.

COZ001>005-013-030-031-271800-
...NORTHWEST COLORADO...

CITY           SKY/WX    TMP DP  RH WIND       PRES   REMARKS
CRAIG          LGT SNOW   7   3  84 CALM      30.28R FOG
HAYDEN         MOSUNNY    9   7  92 NE3       30.24R
MEEKER         MOSUNNY    6   3  87 SW3       30.27R
MOUNT WERNER   NOT AVBL
STEAMBOAT SPGS CLOUDY    11   6  81 SW3       30.22R
WALDEN         MOSUNNY   -9 -18  64 CALM      30.11R
$$

COZ006>008-011-271800-
...WEST CENTRAL VALLEYS...

CITY           SKY/WX    TMP DP  RH WIND       PRES   REMARKS
GRAND JUNCTION SUNNY     17  11  77 E5        30.35R WCI  10
MONTROSE       CLOUDY    21  12  68 CALM      30.33R
EAGLE          MOSUNNY   14  10  85 CALM      30.28R
RIFLE          SUNNY     15   7  70 CALM      30.33R
DELTA          FLURRIES  23  13  67 CALM      30.34S
NUCLA          SUNNY     18   9  68 CALM      30.33R
$$

COZ017>023-064>068-271800-
...SOUTHWEST COLORADO...

CITY           SKY/WX    TMP DP  RH WIND       PRES   REMARKS
DURANGO        SUNNY     13   5  70 CALM      30.21R
CORTEZ         SUNNY     19   7  59 NE5       30.27R WCI  12
PAGOSA SPRINGS SUNNY    N/A N/A N/A SW3       30.17R
TELLURIDE      SUNNY      5   1  81 CALM      30.15R
WOLF CREEK PAS   N/A      5   3  92 MISG      30.00R
$$

COZ009-010-012-014-032>034-037-058>063-271800-
...CENTRAL COLORADO...

CITY           SKY/WX    TMP DP  RH WIND       PRES   REMARKS
ASPEN          MOSUNNY    6  -3  66 S6        30.18R WCI  -4
BUENA VISTA    NOT AVBL
COPPER MTN     CLOUDY     1  -6  71 MISG      29.96R HAZE
BERTHOUD PASS  CLOUDY    -9 -15  77 MISG      29.88R
COTTONWOOD PAS SUNNY     12   3  67 SE7       30.04R WCI   2
GUNNISON       CLOUDY     3 -17  39 CALM      30.24R
KREMMLING      CLOUDY    10   3  72 CALM      30.21R
LEADVILLE      SUNNY      3  -5  69 N9        30.04R WCI -12
SALIDA         SUNNY      7  -1  71 CALM      30.24R
SUNLIGHT       MOSUNNY  N/A N/A N/A CALM      30.06S
WILKERSON PASS MOSUNNY    1  -4  78 W7        29.98R WCI -11
$$

COZ069>075-271800-
...SAN LUIS VALLEY/SANGRE DE CRISTO MOUNTAINS...

CITY           SKY/WX    TMP DP  RH WIND       PRES   REMARKS
ALAMOSA        MOSUNNY   10   6  84 NE3       30.18R
LA VETA PASS   NOT AVBL
SAGUACHE       SUNNY     12   1  62 N15       30.16R WCI  -4
$$

COZ035-036-038>040-271800-
...NORTHERN COLORADO FRONT RANGE...

CITY           SKY/WX    TMP DP  RH WIND       PRES   REMARKS
DENVER INTL AP MOSUNNY   17   8  67 SW15      30.16R WCI   2
DMNS CITY PARK   N/A     20   5  52 S3G14     30.17F
AURORA         MOSUNNY   17   8  67 S8        30.17R WCI   6
FRONT RANGE AP SUNNY     19  10  68 S9        30.17R WCI   9
ERIE MUNI ARPT   N/A     13  12  94 CALM      30.16F
BOULDER MUN AP SUNNY     18  10  73 N3        30.14S
CENTENNIAL     MOSUNNY   17   8  67 CALM      30.15R
BROOMFIELD     NOT AVBL
FORT COLLINS   SUNNY      9   7  92 CALM      30.17S
LONGMONT       SUNNY     17  11  78 CALM      30.18S
$$

COZ041-046-047-076>085-087-088-271800-
...PIKES PEAK/PALMER DIVIDE AND SOUTHERN FOOTHILLS...

CITY           SKY/WX    TMP DP  RH WIND       PRES   REMARKS
COLO. SPRINGS  SUNNY     17  11  77 S5        30.17S WCI  10
A. F. ACADEMY  SUNNY     17   3  55 S2        30.14R
ELLICOTT       NOT AVBL
FALCON         SUNNY     21   6  51 SW3       30.14R
FORT CARSON    SUNNY     17  12  79 SE5       30.17R WCI  10
LIMON          SUNNY     13   7  77 W10       30.18R WCI   0
MONUMENT HILL  SUNNY     14   9  79 S3        30.10S
TRINIDAD       SUNNY     14   7  73 W14       30.21R WCI  -1
$$

COZ042>045-048>051-090-091-271800-
...NORTHEAST COLORADO...

CITY           SKY/WX    TMP DP  RH WIND       PRES   REMARKS
GREELEY ARPT   MOSUNNY    1  -4  78 CALM      30.19R
AKRON          SUNNY     10   7  87 W15       30.19R WCI  -7
BURLINGTON     SUNNY     19  11  70 NW13      30.22R WCI   6
WRAY           SUNNY     21  14  74 W6        30.24S WCI  13
STERLING       SUNNY     10   5  79 SW10      30.23R WCI  -3
HOLYOKE        SUNNY     19  10  68 W12       30.23R WCI   7
FORT MORGAN    SUNNY      6   2  86 W6        30.21S WCI  -5
$$

COZ086-089-092>099-271800-
...SOUTHEAST COLORADO...

CITY           SKY/WX    TMP DP  RH WIND       PRES   REMARKS
PUEBLO         SUNNY     20  12  71 W8        30.25R WCI  10
LA JUNTA       SUNNY     18  11  74 W10       30.27S WCI   6
LAMAR          SUNNY     20  15  81 W10       30.28R WCI   9
SPRINGFIELD      N/A     24  15  68 W6        30.26R WCI  17
$$


USA.gov is the U.S. government's official web portal to all federal, state and local government web resources and services.